Time,TemperatureF,DewpointF,PressureIn,WindDirection,WindDirectionDegrees,WindSpeedMPH,WindSpeedGustMPH,Humidity,HourlyPrecipIn,Conditions,Clouds,dailyrainin,SoftwareType,DateUTC
2013-10-31 00:12:00,43.0,39.0,29.15,NE,45,2.0,8.0,85,0.01,,,0.04,,2013-10-31 08:12:00,
2013-10-31 00:22:00,43.0,39.0,29.15,NE,53,2.0,7.0,86,0.01,,,0.04,,2013-10-31 08:22:00,
2013-10-31 00:42:00,43.0,39.0,29.15,NE,46,2.0,8.0,87,0.00,,,0.04,,2013-10-31 08:42:00,
2013-10-31 00:52:00,43.0,39.0,29.16,East,85,2.0,6.0,87,0.00,,,0.04,,2013-10-31 08:52:00,
2013-10-31 01:11:00,42.0,38.0,29.17,ENE,71,1.0,3.0,87,0.00,,,0.04,,2013-10-31 09:11:00,
2013-10-31 01:21:00,42.0,38.0,29.17,ENE,71,2.0,5.0,87,0.00,,,0.04,,2013-10-31 09:21:00,
2013-10-31 01:43:00,42.0,38.0,29.17,NE,56,2.0,7.0,86,0.01,,,0.05,,2013-10-31 09:43:00,
2013-10-31 01:53:00,42.0,38.0,29.17,NE,43,4.0,8.0,86,0.01,,,0.05,,2013-10-31 09:53:00,
2013-10-31 02:13:00,43.0,39.0,29.18,ENE,71,2.0,7.0,85,0.01,,,0.05,,2013-10-31 10:13:00,
2013-10-31 02:23:00,43.0,38.0,29.18,ENE,77,3.0,8.0,84,0.01,,,0.05,,2013-10-31 10:23:00,
2013-10-31 02:42:00,43.0,39.0,29.19,ENE,78,2.0,7.0,87,0.00,,,0.05,,2013-10-31 10:42:00,
2013-10-31 02:53:00,43.0,39.0,29.20,ENE,59,1.0,8.0,87,0.00,,,0.05,,2013-10-31 10:53:00,
2013-10-31 03:12:00,43.0,39.0,29.20,ENE,69,2.0,6.0,87,0.00,,,0.05,,2013-10-31 11:12:00,
2013-10-31 03:21:00,43.0,40.0,29.21,NE,55,2.0,7.0,88,0.00,,,0.05,,2013-10-31 11:21:00,
2013-10-31 03:42:00,42.0,39.0,29.21,ENE,61,1.0,3.0,88,0.00,,,0.05,,2013-10-31 11:42:00,
2013-10-31 03:52:00,42.0,39.0,29.21,NE,46,0.0,3.0,88,0.00,,,0.05,,2013-10-31 11:52:00,
2013-10-31 04:12:00,42.0,39.0,29.22,East,85,0.0,1.0,88,0.00,,,0.05,,2013-10-31 12:12:00,
2013-10-31 04:21:00,42.0,39.0,29.22,East,85,0.0,0.0,89,0.00,,,0.05,,2013-10-31 12:21:00,
2013-10-31 04:52:00,40.0,38.0,29.23,East,85,0.0,0.0,92,0.01,,,0.06,,2013-10-31 12:52:00,
2013-10-31 05:11:00,40.0,38.0,29.24,East,85,0.0,0.0,93,0.01,,,0.06,,2013-10-31 13:11:00,
2013-10-31 05:22:00,40.0,38.0,29.24,East,85,0.0,0.0,93,0.01,,,0.06,,2013-10-31 13:22:00,
2013-10-31 05:42:00,40.0,38.0,29.24,East,85,0.0,0.0,94,0.00,,,0.06,,2013-10-31 13:42:00,
2013-10-31 05:52:00,40.0,38.0,29.25,East,85,0.0,0.0,94,0.00,,,0.06,,2013-10-31 13:52:00,
2013-10-31 06:11:00,40.0,39.0,29.25,East,85,0.0,0.0,95,0.00,,,0.06,,2013-10-31 14:11:00,
2013-10-31 06:21:00,40.0,39.0,29.26,East,85,0.0,0.0,95,0.00,,,0.06,,2013-10-31 14:21:00,
2013-10-31 06:42:00,40.0,39.0,29.26,East,85,0.0,0.0,95,0.00,,,0.06,,2013-10-31 14:42:00,
2013-10-31 06:52:00,40.0,39.0,29.27,East,85,0.0,0.0,95,0.00,,,0.06,,2013-10-31 14:52:00,
2013-10-31 07:11:00,40.0,39.0,29.27,East,85,0.0,0.0,95,0.00,,,0.06,,2013-10-31 15:11:00,
2013-10-31 08:22:00,40.0,39.0,29.29,East,84,0.0,1.0,96,0.00,,,0.06,,2013-10-31 16:22:00,
2013-10-31 08:53:00,41.0,40.0,29.30,East,84,0.0,0.0,96,0.00,,,0.06,,2013-10-31 16:53:00,
2013-10-31 09:12:00,41.0,40.0,29.30,NE,47,1.0,2.0,96,0.00,,,0.06,,2013-10-31 17:12:00,
2013-10-31 09:22:00,41.0,40.0,29.31,NE,47,0.0,2.0,96,0.00,,,0.06,,2013-10-31 17:22:00,
2013-10-31 09:43:00,41.0,40.0,29.31,NNW,328,0.0,3.0,96,0.00,,,0.06,,2013-10-31 17:43:00,
2013-10-31 09:52:00,41.0,40.0,29.31,NNW,328,0.0,1.0,96,0.00,,,0.06,,2013-10-31 17:52:00,
2013-10-31 10:21:00,41.0,40.0,29.33,NNW,333,1.0,3.0,96,0.00,,,0.06,,2013-10-31 18:21:00,
2013-10-31 10:52:00,42.0,41.0,29.34,NNW,333,0.0,3.0,96,0.01,,,0.07,,2013-10-31 18:52:00,
2013-10-31 11:21:00,42.0,41.0,29.34,NNW,333,0.0,2.0,95,0.01,,,0.07,,2013-10-31 19:21:00,
2013-10-31 11:52:00,43.0,42.0,29.36,NNW,333,0.0,2.0,96,0.01,,,0.08,,2013-10-31 19:52:00,
2013-10-31 12:21:00,44.0,42.0,29.37,NNW,333,0.0,1.0,94,0.01,,,0.08,,2013-10-31 20:21:00,
2013-10-31 12:52:00,44.0,42.0,29.38,NNW,333,0.0,2.0,92,0.00,,,0.08,,2013-10-31 20:52:00,
2013-10-31 13:21:00,44.0,41.0,29.39,NNW,332,0.0,3.0,90,0.00,,,0.08,,2013-10-31 21:21:00,
2013-10-31 13:43:00,45.0,42.0,29.40,NNW,332,0.0,2.0,90,0.00,,,0.08,,2013-10-31 21:43:00,
2013-10-31 13:54:00,45.0,42.0,29.40,NNW,332,0.0,3.0,90,0.00,,,0.08,,2013-10-31 21:54:00,
2013-10-31 14:13:00,45.0,42.0,29.40,WNW,288,1.0,3.0,89,0.00,,,0.08,,2013-10-31 22:13:00,
2013-10-31 14:24:00,45.0,42.0,29.41,WNW,302,0.0,3.0,89,0.00,,,0.08,,2013-10-31 22:24:00,
2013-10-31 14:53:00,44.0,41.0,29.41,NW,315,1.0,5.0,89,0.00,,,0.08,,2013-10-31 22:53:00,
2013-10-31 15:22:00,44.0,41.0,29.42,NW,315,0.0,3.0,89,0.00,,,0.08,,2013-10-31 23:22:00,
2013-10-31 15:53:00,45.0,42.0,29.43,NW,315,0.0,2.0,90,0.00,,,0.08,,2013-10-31 23:53:00,
2013-10-31 16:21:00,45.0,42.0,29.44,NW,315,1.0,3.0,88,0.00,,,0.08,,2013-11-01 00:21:00,
2013-10-31 16:42:00,44.0,41.0,29.45,NW,315,0.0,1.0,89,0.00,,,0.08,,2013-11-01 00:42:00,
2013-10-31 16:52:00,44.0,41.0,29.45,NW,315,0.0,0.0,89,0.00,,,0.08,,2013-11-01 00:52:00,
2013-10-31 17:22:00,44.0,41.0,29.46,NW,315,0.0,0.0,90,0.00,,,0.08,,2013-11-01 01:22:00,
2013-10-31 17:52:00,44.0,42.0,29.47,NW,315,0.0,2.0,91,0.00,,,0.08,,2013-11-01 01:52:00,
2013-10-31 18:21:00,44.0,42.0,29.48,West,275,0.0,0.0,92,0.00,,,0.08,,2013-11-01 02:21:00,
2013-10-31 18:52:00,43.0,41.0,29.48,West,275,0.0,1.0,92,0.00,,,0.08,,2013-11-01 02:52:00,
2013-10-31 19:21:00,42.0,40.0,29.49,West,275,0.0,1.0,93,0.00,,,0.08,,2013-11-01 03:21:00,
2013-10-31 19:54:00,42.0,40.0,29.50,South,190,0.0,2.0,94,0.00,,,0.08,,2013-11-01 03:54:00,
2013-10-31 20:24:00,42.0,41.0,29.51,South,180,1.0,2.0,95,0.01,,,0.08,,2013-11-01 04:24:00,
2013-10-31 20:54:00,41.0,40.0,29.52,SSE,157,0.0,3.0,95,0.01,,,0.08,,2013-11-01 04:54:00,
2013-10-31 21:23:00,41.0,40.0,29.54,SSE,155,0.0,2.0,95,0.00,,,0.08,,2013-11-01 05:23:00,
2013-10-31 21:53:00,41.0,40.0,29.54,SSE,156,0.0,3.0,96,0.02,,,0.09,,2013-11-01 05:53:00,
2013-10-31 22:21:00,41.0,40.0,29.56,South,191,0.0,3.0,96,0.02,,,0.09,,2013-11-01 06:21:00,
2013-10-31 22:52:00,42.0,41.0,29.57,SSE,155,1.0,3.0,96,0.00,,,0.08,,2013-11-01 06:52:00,
2013-10-31 23:12:00,42.0,41.0,29.58,South,187,1.0,3.0,96,0.01,,,0.09,,2013-11-01 07:12:00,
2013-10-31 23:21:00,42.0,41.0,29.59,South,187,0.0,3.0,96,0.02,,,0.10,,2013-11-01 07:21:00,
2013-10-31 23:52:00,41.0,40.0,29.60,South,187,1.0,3.0,96,0.03,,,0.10,,2013-11-01 07:52:00,